| time (UTC) | temp F | wind direction | speed MPH | gust MPH | rain 1hr in | rain 24hr in | rain mn in | humidity % | barometer mb |
| 20260504231815 | 26 | 252 | 8.0 | 8.0 | 0.00 | 0.00 | 0.00 | 97 | 1017.7 |
| 20260504231312 | 26 | 263 | 7.0 | 8.0 | 0.00 | 0.00 | 0.00 | 97 | 1017.4 |
| 20260504230808 | 27 | 302 | 4.0 | 5.0 | 0.00 | 0.00 | 0.00 | 97 | 1017.5 |
| 20260504230306 | 26 | 278 | 7.0 | 8.0 | 0.00 | 0.00 | 0.00 | 97 | 1017.4 |
| 20260504225804 | 26 | 275 | 8.0 | 10.0 | 0.00 | 0.00 | 0.00 | 96 | 1017.5 |
| 20260504225300 | 27 | 275 | 17.0 | 18.0 | 0.00 | 0.00 | 0.00 | 96 | 1017.5 |
| 20260504224757 | 27 | 276 | 20.0 | 22.0 | 0.00 | 0.00 | 0.00 | 95 | 1017.4 |
| 20260504224255 | 28 | 272 | 26.0 | 27.0 | 0.00 | 0.00 | 0.00 | 91 | 1016.8 |
| 20260504223751 | 29 | 283 | 19.0 | 21.0 | 0.00 | 0.00 | 0.00 | 86 | 1017.4 |
| 20260504223247 | 30 | 278 | 21.0 | 25.0 | 0.00 | 0.00 | 0.00 | 79 | 1016.9 |
| 20260504222744 | 31 | 320 | 12.0 | 15.0 | 0.00 | 0.00 | 0.00 | 81 | 1017.1 |
| 20260504222240 | 31 | 270 | 15.0 | 18.0 | 0.00 | 0.00 | 0.00 | 76 | 1016.8 |
| 20260504221738 | 31 | 290 | 11.0 | 11.0 | 0.00 | 0.00 | 0.00 | 76 | 1017.2 |
| 20260504221235 | 31 | 277 | 12.0 | 15.0 | 0.00 | 0.00 | 0.00 | 76 | 1017.4 |
| 20260504220731 | 32 | 281 | 10.0 | 11.0 | 0.00 | 0.00 | 0.00 | 76 | 1017.5 |
| 20260504220229 | 32 | 248 | 9.0 | 9.0 | 0.00 | 0.00 | 0.00 | 74 | 1017.5 |
| 20260504215726 | 31 | 287 | 7.0 | 8.0 | 0.00 | 0.00 | 0.00 | 79 | 1017.4 |
| 20260504215223 | 32 | 288 | 8.0 | 8.0 | 0.00 | 0.00 | 0.00 | 77 | 1017.2 |
| 20260504214718 | 31 | 281 | 8.0 | 9.0 | 0.00 | 0.00 | 0.00 | 77 | 1017.2 |
| 20260504214215 | 31 | 152 | 11.0 | 11.0 | 0.00 | 0.00 | 0.00 | 76 | 1017.4 |
| 20260504213712 | 32 | 116 | 9.0 | 10.0 | 0.00 | 0.00 | 0.00 | 78 | 1017.5 |
| 20260504213208 | 32 | 285 | 13.0 | 15.0 | 0.00 | 0.00 | 0.00 | 79 | 1017.5 |
| 20260504212705 | 32 | 275 | 8.0 | 10.0 | 0.00 | 0.00 | 0.00 | 79 | 1017.5 |
| 20260504212202 | 31 | 267 | 13.0 | 14.0 | 0.00 | 0.00 | 0.00 | 79 | 1017.9 |
| 20260504211659 | 32 | 285 | 16.0 | 17.0 | 0.00 | 0.00 | 0.00 | 77 | 1017.9 |
| 20260504211155 | 31 | 238 | 7.0 | 9.0 | 0.00 | 0.00 | 0.00 | 78 | 1017.7 |
| 20260504210653 | 30 | 257 | 10.0 | 10.0 | 0.00 | 0.00 | 0.00 | 77 | 1017.9 |
| 20260504210149 | 30 | 254 | 12.0 | 13.0 | 0.00 | 0.00 | 0.00 | 75 | 1018.1 |
| 20260504205647 | 30 | 294 | 9.0 | 10.0 | 0.00 | 0.00 | 0.00 | 75 | 1017.9 |
| 20260504205144 | 30 | 286 | 13.0 | 14.0 | 0.00 | 0.00 | 0.00 | 78 | 1017.9 |
| 20260504204643 | 31 | 286 | 16.0 | 17.0 | 0.00 | 0.00 | 0.00 | 75 | 1018.2 |
| 20260504204141 | 31 | 250 | 16.0 | 18.0 | 0.00 | 0.00 | 0.00 | 72 | 1017.9 |
| 20260504203639 | 31 | 283 | 19.0 | 21.0 | 0.00 | 0.00 | 0.00 | 70 | 1017.9 |
| 20260504203137 | 32 | 295 | 16.0 | 17.0 | 0.00 | 0.00 | 0.00 | 68 | 1018.1 |
| 20260504202637 | 32 | 295 | 17.0 | 18.0 | 0.00 | 0.00 | 0.00 | 65 | 1018.1 |
| 20260504202134 | 32 | 286 | 15.0 | 16.0 | 0.00 | 0.00 | 0.00 | 65 | 1017.7 |
| 20260504201631 | 32 | 255 | 13.0 | 17.0 | 0.00 | 0.00 | 0.00 | 65 | 1017.9 |
| 20260504201129 | 32 | 282 | 15.0 | 17.0 | 0.00 | 0.00 | 0.00 | 56 | 1018.1 |
| 20260504200626 | 32 | 293 | 15.0 | 17.0 | 0.00 | 0.00 | 0.00 | 62 | 1018.1 |
| 20260504200122 | 32 | 45 | 15.0 | 16.0 | 0.00 | 0.00 | 0.00 | 59 | 1017.8 |
| 20260504195618 | 32 | 280 | 14.0 | 14.0 | 0.00 | 0.00 | 0.00 | 64 | 1018.1 |
| 20260504195114 | 32 | 295 | 17.0 | 20.0 | 0.00 | 0.00 | 0.00 | 62 | 1017.8 |
| 20260504194611 | 33 | 258 | 16.0 | 17.0 | 0.00 | 0.00 | 0.00 | 61 | 1017.9 |
| 20260504194107 | 33 | 257 | 23.0 | 26.0 | 0.00 | 0.00 | 0.00 | 59 | 1018.1 |
| 20260504193603 | 33 | 281 | 13.0 | 17.0 | 0.00 | 0.00 | 0.00 | 58 | 1018.1 |
| 20260504193102 | 33 | 266 | 18.0 | 22.0 | 0.00 | 0.00 | 0.00 | 61 | 1017.9 |
| 20260504192600 | 32 | 282 | 11.0 | 13.0 | 0.00 | 0.00 | 0.00 | 61 | 1018.1 |
| 20260504192058 | 32 | 271 | 16.0 | 16.0 | 0.00 | 0.00 | 0.00 | 64 | 1017.9 |
| 20260504191556 | 32 | 265 | 17.0 | 20.0 | 0.00 | 0.00 | 0.00 | 64 | 1018.1 |
| 20260504191051 | 32 | 265 | 12.0 | 14.0 | 0.00 | 0.00 | 0.00 | 66 | 1018.5 |
| 20260504190548 | 33 | 289 | 10.0 | 10.0 | 0.00 | 0.00 | 0.00 | 67 | 1018.5 |
| 20260504190044 | 31 | 277 | 13.0 | 15.0 | 0.00 | 0.00 | 0.00 | 66 | 1018.4 |
| 20260504185541 | 31 | 260 | 16.0 | 17.0 | 0.00 | 0.00 | 0.00 | 64 | 1018.5 |
| 20260504185038 | 31 | 279 | 13.0 | 16.0 | 0.00 | 0.00 | 0.00 | 68 | 1018.7 |
| 20260504184533 | 30 | 268 | 8.0 | 8.0 | 0.00 | 0.00 | 0.00 | 76 | 1018.8 |
| 20260504184029 | 29 | 266 | 8.0 | 9.0 | 0.00 | 0.00 | 0.00 | 77 | 1018.8 |
| 20260504183526 | 29 | 284 | 13.0 | 14.0 | 0.00 | 0.00 | 0.00 | 80 | 1019.0 |
| 20260504183024 | 28 | 302 | 13.0 | 15.0 | 0.00 | 0.00 | 0.00 | 86 | 1019.0 |
| 20260504182520 | 27 | 284 | 11.0 | 11.0 | 0.00 | 0.00 | 0.00 | 90 | 1019.1 |
| 20260504182018 | 27 | 274 | 16.0 | 17.0 | 0.00 | 0.00 | 0.00 | 90 | 1018.8 |
| 20260504181515 | 28 | 279 | 17.0 | 21.0 | 0.00 | 0.00 | 0.00 | 87 | 1019.3 |
| 20260504181014 | 28 | 289 | 19.0 | 22.0 | 0.00 | 0.00 | 0.00 | 85 | 1018.8 |
| 20260504180512 | 28 | 255 | 19.0 | 22.0 | 0.00 | 0.00 | 0.00 | 89 | 1018.8 |
| 20260504180010 | 28 | 227 | 17.0 | 18.0 | 0.00 | 0.00 | 0.00 | 91 | 1019.3 |
| 20260504175507 | 28 | 202 | 12.0 | 16.0 | 0.00 | 0.00 | 0.00 | 90 | 1019.0 |
| 20260504175004 | 28 | 240 | 17.0 | 18.0 | 0.00 | 0.00 | 0.00 | 91 | 1019.3 |
| 20260504174502 | 27 | 240 | 15.0 | 17.0 | 0.00 | 0.00 | 0.00 | 90 | 1019.4 |
| 20260504173959 | 27 | 254 | 12.0 | 13.0 | 0.00 | 0.00 | 0.00 | 87 | 1019.3 |
| 20260504173455 | 28 | 255 | 17.0 | 18.0 | 0.00 | 0.00 | 0.00 | 86 | 1019.0 |
| 20260504172953 | 29 | 259 | 22.0 | 23.0 | 0.00 | 0.00 | 0.00 | 83 | 1019.1 |
| 20260504172448 | 30 | 247 | 17.0 | 20.0 | 0.00 | 0.00 | 0.00 | 76 | 1019.3 |
| 20260504171945 | 30 | 285 | 17.0 | 18.0 | 0.00 | 0.00 | 0.00 | 73 | 1019.1 |
| 20260504171443 | 30 | 275 | 21.0 | 22.0 | 0.00 | 0.00 | 0.00 | 74 | 1019.0 |
| 20260504170939 | 30 | 291 | 19.0 | 23.0 | 0.00 | 0.00 | 0.00 | 72 | 1019.0 |
| 20260504170436 | 30 | 295 | 16.0 | 18.0 | 0.00 | 0.00 | 0.00 | 71 | 1019.1 |
| 20260504160355 | 30 | 253 | 11.0 | 13.0 | 0.00 | 0.00 | 0.00 | 74 | 1019.3 |
| 20260504150820 | 28 | 258 | 15.0 | 15.0 | 0.00 | 0.00 | 0.00 | 79 | 1019.7 |
| 20260504150316 | 28 | 228 | 16.0 | 18.0 | 0.00 | 0.00 | 0.00 | 79 | 1019.7 |
| 20260504141246 | 27 | 266 | 14.0 | 15.0 | 0.00 | 0.00 | 0.00 | 80 | 1019.8 |
| 20260504140742 | 27 | 281 | 18.0 | 20.0 | 0.00 | 0.00 | 0.00 | 80 | 1019.7 |
| 20260504140238 | 28 | 295 | 16.0 | 17.0 | 0.00 | 0.00 | 0.00 | 78 | 1019.5 |
| 20260504130707 | 27 | 261 | 15.0 | 16.0 | 0.00 | 0.00 | 0.00 | 74 | 1019.3 |
| 20260504130203 | 27 | 283 | 14.0 | 15.0 | 0.00 | 0.00 | 0.00 | 73 | 1019.1 |
| 20260504120127 | 28 | 248 | 20.0 | 21.0 | 0.00 | 0.00 | 0.00 | 61 | 1019.1 |
| 20260504110554 | 29 | 281 | 12.0 | 13.0 | 0.00 | 0.00 | 0.00 | 56 | 1019.3 |
| 20260504100516 | 29 | 261 | 11.0 | 11.0 | 0.00 | 0.00 | 0.00 | 57 | 1019.0 |
| 20260504081909 | 30 | 267 | 16.0 | 17.0 | 0.00 | 0.00 | 0.00 | 56 | 1019.8 |
| 20260504081406 | 30 | 265 | 18.0 | 21.0 | 0.00 | 0.00 | 0.00 | 57 | 1020.0 |
| 20260504080902 | 30 | 261 | 14.0 | 16.0 | 0.00 | 0.00 | 0.00 | 57 | 1020.4 |
| 20260504080359 | 30 | 261 | 17.0 | 17.0 | 0.00 | 0.00 | 0.00 | 57 | 1020.1 |
| 20260504070326 | 30 | 264 | 17.0 | 18.0 | 0.00 | 0.00 | 0.00 | 58 | 1021.0 |
| 20260504060247 | 30 | 256 | 11.0 | 11.0 | 0.00 | 0.00 | 0.00 | 59 | 1021.3 |
| 20260504050715 | 31 | 272 | 9.0 | 9.0 | 0.00 | 0.00 | 0.00 | 57 | 1021.6 |
| 20260504050212 | 31 | 295 | 12.0 | 13.0 | 0.00 | 0.00 | 0.00 | 56 | 1021.7 |
| 20260504045709 | 30 | 284 | 13.0 | 14.0 | 0.00 | 0.00 | 0.00 | 60 | 1021.9 |
| 20260504045209 | 31 | 299 | 12.0 | 14.0 | 0.00 | 0.00 | 0.00 | 58 | 1021.9 |
| 20260504044708 | 31 | 271 | 13.0 | 14.0 | 0.00 | 0.00 | 0.00 | 59 | 1022.0 |
| 20260504044204 | 31 | 272 | 16.0 | 17.0 | 0.00 | 0.00 | 0.00 | 59 | 1021.9 |
| 20260504043701 | 31 | 268 | 12.0 | 13.0 | 0.00 | 0.00 | 0.00 | 59 | 1022.2 |
| 20260504043158 | 31 | 256 | 11.0 | 13.0 | 0.00 | 0.00 | 0.00 | 60 | 1022.0 |
| 20260504042655 | 31 | 273 | 13.0 | 14.0 | 0.00 | 0.00 | 0.00 | 59 | 1022.0 |
| 20260504042152 | 31 | 261 | 9.0 | 10.0 | 0.00 | 0.00 | 0.00 | 59 | 1022.2 |
| 20260504041648 | 31 | 257 | 11.0 | 11.0 | 0.00 | 0.00 | 0.00 | 58 | 1022.3 |
| 20260504041144 | 31 | 276 | 11.0 | 11.0 | 0.00 | 0.00 | 0.00 | 58 | 1022.2 |
| 20260504040641 | 31 | 261 | 10.0 | 10.0 | 0.00 | 0.00 | 0.00 | 58 | 1022.5 |
| 20260504040138 | 31 | 274 | 9.0 | 10.0 | 0.00 | 0.00 | 0.00 | 58 | 1022.5 |
| 20260504035635 | 31 | 262 | 11.0 | 11.0 | 0.00 | 0.00 | 0.00 | 58 | 1022.3 |
| 20260504035131 | 31 | 263 | 12.0 | 13.0 | 0.00 | 0.00 | 0.00 | 57 | 1022.2 |
| 20260504034629 | 31 | 270 | 11.0 | 11.0 | 0.00 | 0.00 | 0.00 | 57 | 1022.2 |
| 20260504034126 | 31 | 262 | 11.0 | 11.0 | 0.00 | 0.00 | 0.00 | 57 | 1022.3 |
| 20260504033624 | 31 | 278 | 11.0 | 11.0 | 0.00 | 0.00 | 0.00 | 57 | 1022.0 |
| 20260504033121 | 31 | 285 | 10.0 | 11.0 | 0.00 | 0.00 | 0.00 | 57 | 1022.7 |
| 20260504032618 | 31 | 278 | 8.0 | 9.0 | 0.00 | 0.00 | 0.00 | 57 | 1022.5 |
| 20260504032115 | 31 | 283 | 9.0 | 9.0 | 0.00 | 0.00 | 0.00 | 57 | 1022.3 |
| 20260504031612 | 32 | 282 | 10.0 | 10.0 | 0.00 | 0.00 | 0.00 | 56 | 1022.5 |
| 20260504031108 | 31 | 282 | 11.0 | 11.0 | 0.00 | 0.00 | 0.00 | 57 | 1022.5 |
| 20260504030605 | 32 | 278 | 11.0 | 13.0 | 0.00 | 0.00 | 0.00 | 56 | 1022.3 |
| 20260504030101 | 32 | 280 | 14.0 | 15.0 | 0.00 | 0.00 | 0.00 | 56 | 1022.0 |
| 20260504025558 | 31 | 238 | 15.0 | 16.0 | 0.00 | 0.00 | 0.00 | 56 | 1022.2 |
| 20260504025055 | 31 | 330 | 15.0 | 16.0 | 0.00 | 0.00 | 0.00 | 56 | 1022.2 |
| 20260504024552 | 31 | 253 | 13.0 | 14.0 | 0.00 | 0.00 | 0.00 | 57 | 1022.2 |
| 20260504024049 | 31 | 76 | 14.0 | 15.0 | 0.00 | 0.00 | 0.00 | 57 | 1021.9 |
| 20260504023546 | 31 | 145 | 17.0 | 18.0 | 0.00 | 0.00 | 0.00 | 57 | 1022.0 |
| 20260504023042 | 31 | 319 | 11.0 | 11.0 | 0.00 | 0.00 | 0.00 | 60 | 1022.0 |
| 20260504022537 | 31 | 344 | 10.0 | 10.0 | 0.00 | 0.00 | 0.00 | 60 | 1022.2 |
| 20260504022034 | 31 | 341 | 14.0 | 15.0 | 0.00 | 0.00 | 0.00 | 60 | 1022.3 |
| 20260504021532 | 31 | 325 | 10.0 | 11.0 | 0.00 | 0.00 | 0.00 | 60 | 1022.5 |
| 20260504021028 | 31 | 348 | 12.0 | 14.0 | 0.00 | 0.00 | 0.00 | 60 | 1022.2 |
| 20260504020525 | 31 | 339 | 15.0 | 16.0 | 0.00 | 0.00 | 0.00 | 59 | 1022.0 |
| 20260504020022 | 31 | 321 | 17.0 | 18.0 | 0.00 | 0.00 | 0.00 | 60 | 1021.9 |
| 20260504015518 | 31 | 352 | 15.0 | 16.0 | 0.00 | 0.00 | 0.00 | 61 | 1022.3 |
| 20260504015014 | 31 | 279 | 15.0 | 16.0 | 0.00 | 0.00 | 0.00 | 62 | 1022.0 |
| 20260504014510 | 31 | 346 | 13.0 | 14.0 | 0.00 | 0.00 | 0.00 | 61 | 1022.3 |
| 20260504014008 | 31 | 359 | 14.0 | 16.0 | 0.00 | 0.00 | 0.00 | 61 | 1022.0 |
| 20260504013506 | 31 | 352 | 15.0 | 16.0 | 0.00 | 0.00 | 0.00 | 60 | 1022.2 |
| 20260504013001 | 32 | 356 | 21.0 | 22.0 | 0.00 | 0.00 | 0.00 | 58 | 1021.9 |
| 20260504012500 | 33 | 282 | 13.0 | 14.0 | 0.00 | 0.00 | 0.00 | 53 | 1021.7 |
| 20260504011957 | 33 | 312 | 15.0 | 17.0 | 0.00 | 0.00 | 0.00 | 54 | 1022.0 |
| 20260504011454 | 33 | 334 | 13.0 | 14.0 | 0.00 | 0.00 | 0.00 | 53 | 1022.0 |
| 20260504010949 | 33 | 293 | 13.0 | 13.0 | 0.00 | 0.00 | 0.00 | 53 | 1021.7 |
| 20260504010446 | 33 | 124 | 14.0 | 15.0 | 0.00 | 0.00 | 0.00 | 56 | 1021.9 |
| 20260504005942 | 33 | 343 | 22.0 | 25.0 | 0.00 | 0.00 | 0.00 | 54 | 1022.0 |
| 20260504005439 | 33 | 318 | 15.0 | 16.0 | 0.00 | 0.00 | 0.00 | 53 | 1022.2 |
| 20260504004936 | 34 | 275 | 18.0 | 21.0 | 0.00 | 0.00 | 0.00 | 50 | 1021.9 |
| 20260504004434 | 34 | 278 | 15.0 | 16.0 | 0.00 | 0.00 | 0.00 | 49 | 1021.9 |
| 20260504003931 | 34 | 286 | 17.0 | 20.0 | 0.00 | 0.00 | 0.00 | 52 | 1022.0 |
| 20260504003427 | 34 | 255 | 20.0 | 22.0 | 0.00 | 0.00 | 0.00 | 51 | 1021.9 |
| 20260504002924 | 34 | 253 | 9.0 | 10.0 | 0.00 | 0.00 | 0.00 | 49 | 1022.2 |
| 20260504002420 | 34 | 271 | 19.0 | 22.0 | 0.00 | 0.00 | 0.00 | 50 | 1022.0 |
| 20260504001918 | 35 | 287 | 17.0 | 18.0 | 0.00 | 0.00 | 0.00 | 49 | 1022.2 |
| 20260504001416 | 35 | 266 | 20.0 | 23.0 | 0.00 | 0.00 | 0.00 | 48 | 1022.2 |
| 20260504000912 | 34 | 269 | 24.0 | 25.0 | 0.00 | 0.00 | 0.00 | 48 | 1022.3 |
| 20260504000409 | 34 | 286 | 23.0 | 25.0 | 0.00 | 0.00 | 0.00 | 49 | 1022.5 |
| 20260503235906 | 34 | 264 | 17.0 | 20.0 | 0.00 | 0.00 | 0.00 | 51 | 1022.3 |
| 20260503235404 | 34 | 254 | 17.0 | 17.0 | 0.00 | 0.00 | 0.00 | 52 | 1022.3 |
| 20260503234901 | 33 | 234 | 23.0 | 26.0 | 0.00 | 0.00 | 0.00 | 52 | 1022.3 |
| 20260503234359 | 34 | 261 | 27.0 | 32.0 | 0.00 | 0.00 | 0.00 | 50 | 1022.2 |
| 20260503233856 | 35 | 223 | 25.0 | 26.0 | 0.00 | 0.00 | 0.00 | 49 | 1022.3 |
| 20260503233353 | 35 | 276 | 18.0 | 21.0 | 0.00 | 0.00 | 0.00 | 47 | 1022.2 |
| 20260503232849 | 35 | 275 | 23.0 | 24.0 | 0.00 | 0.00 | 0.00 | 45 | 1022.3 |
| 20260503232347 | 35 | 282 | 26.0 | 29.0 | 0.00 | 0.00 | 0.00 | 46 | 1022.3 |
| 20260503231844 | 35 | 266 | 24.0 | 27.0 | 0.00 | 0.00 | 0.00 | 48 | 1022.2 |